When you browse on this site, cookies collect data to enhance your experience and personalize the content and advertising you see.
Visit our Privacy Policy to learn more. By continuing to use the site, you agree to this use of cookies and data.
  • In Österreich
  • Länderverzeichnis
  • Für 7 Tage
  • Wassertemperatur
  • Satellitenkarten
  • Wetterkarte
  • News
  • Widgets
  • user-avatar
    Anmelden

    Stündliche Wetter Barisal

    Heute, 26 Juni, Mittwoch

    Zeit Temperatur Niederschläge Wind Luftdruck Luftfeuchtigkeit
    00:00 +31°C° 0 mm 3 m/S 753 mmHg 81%
    01:00 +32°C° 0 mm 4 m/S 752 mmHg 81%
    02:00 +32°C° 0 mm 4 m/S 752 mmHg 82%
    03:00 +32°C° 0 mm 5 m/S 751 mmHg 82%
    04:00 +32°C° 0 mm 5 m/S 752 mmHg 81%
    05:00 +32°C° 0 mm 5 m/S 752 mmHg 79%
    06:00 +31°C° 0 mm 3 m/S 753 mmHg 78%
    07:00 +33°C° 0 mm 4 m/S 753 mmHg 73%
    08:00 +35°C° 0 mm 4 m/S 753 mmHg 68%
    09:00 +36°C° 0 mm 5 m/S 753 mmHg 62%
    10:00 +38°C° 0 mm 6 m/S 752 mmHg 58%
    11:00 +39°C° 0 mm 6 m/S 752 mmHg 54%
    12:00 +40°C° 0 mm 6 m/S 752 mmHg 51%
    13:00 +40°C° 0 mm 7 m/S 752 mmHg 51%
    14:00 +39°C° 0 mm 7 m/S 751 mmHg 51%
    15:00 +39°C° 0 mm 8 m/S 750 mmHg 51%
    16:00 +38°C° 0 mm 7 m/S 750 mmHg 56%
    17:00 +36°C° 0 mm 7 m/S 750 mmHg 60%
    18:00 +35°C° 0 mm 7 m/S 750 mmHg 65%
    19:00 +34°C° 0 mm 6 m/S 750 mmHg 68%
    20:00 +33°C° 0 mm 6 m/S 750 mmHg 72%
    21:00 +33°C° 0 mm 5 m/S 751 mmHg 75%
    22:00 +33°C° 0 mm 6 m/S 751 mmHg 76%
    23:00 +32°C° 0 mm 6 m/S 751 mmHg 77%

    Morgen, 27 Juni, Donnerstag

    Zeit Temperatur Niederschläge Wind Luftdruck Luftfeuchtigkeit
    00:00 +32°C° 0 mm 6 m/S 751 mmHg 78%
    01:00 +32°C° 0 mm 6 m/S 751 mmHg 78%
    02:00 +32°C° 0 mm 6 m/S 750 mmHg 78%
    03:00 +32°C° 0 mm 6 m/S 750 mmHg 78%
    04:00 +32°C° 0 mm 6 m/S 750 mmHg 77%
    05:00 +32°C° 0 mm 5 m/S 750 mmHg 76%
    06:00 +32°C° 0 mm 5 m/S 750 mmHg 75%
    07:00 +33°C° 0 mm 6 m/S 750 mmHg 71%
    08:00 +34°C° 0 mm 6 m/S 750 mmHg 66%
    09:00 +36°C° 0 mm 7 m/S 750 mmHg 61%
    10:00 +36°C° 0 mm 7 m/S 750 mmHg 58%
    11:00 +38°C° 0 mm 7 m/S 750 mmHg 55%
    12:00 +39°C° 0 mm 7 m/S 749 mmHg 52%
    13:00 +39°C° 0 mm 7 m/S 749 mmHg 53%
    14:00 +39°C° 0 mm 7 m/S 748 mmHg 54%
    15:00 +39°C° 0 mm 7 m/S 747 mmHg 55%
    16:00 +36°C° 0 mm 7 m/S 747 mmHg 60%
    17:00 +35°C° 0 mm 7 m/S 747 mmHg 65%
    18:00 +34°C° 0 mm 7 m/S 746 mmHg 69%
    19:00 +34°C° 0 mm 7 m/S 747 mmHg 72%
    20:00 +33°C° 0 mm 7 m/S 747 mmHg 74%
    21:00 +33°C° 0 mm 7 m/S 748 mmHg 77%
    22:00 +33°C° 0 mm 7 m/S 748 mmHg 77%
    23:00 +33°C° 0 mm 7 m/S 748 mmHg 77%

    übermorgen, 28 Juni, Freitag

    Zeit Temperatur Niederschläge Wind Luftdruck Luftfeuchtigkeit
    00:00 +33°C° 0 mm 6 m/S 749 mmHg 78%
    01:00 +33°C° 0 mm 6 m/S 748 mmHg 78%
    02:00 +33°C° 0 mm 5 m/S 748 mmHg 78%
    03:00 +33°C° 0 mm 5 m/S 748 mmHg 78%
    04:00 +33°C° 0.1 mm 5 m/S 748 mmHg 78%
    05:00 +33°C° 0.1 mm 5 m/S 748 mmHg 79%
    06:00 +32°C° 0.1 mm 4 m/S 748 mmHg 79%
    07:00 +33°C° 0.2 mm 5 m/S 748 mmHg 75%
    08:00 +34°C° 0.2 mm 5 m/S 748 mmHg 71%
    09:00 +35°C° 0.2 mm 6 m/S 749 mmHg 67%
    10:00 +36°C° 1.2 mm 6 m/S 748 mmHg 64%
    11:00 +37°C° 1.2 mm 5 m/S 748 mmHg 60%
    12:00 +39°C° 1.2 mm 5 m/S 748 mmHg 56%
    13:00 +37°C° 3.7 mm 5 m/S 747 mmHg 59%
    14:00 +36°C° 3.7 mm 5 m/S 747 mmHg 63%
    15:00 +35°C° 3.7 mm 4 m/S 747 mmHg 67%
    16:00 +35°C° 5.1 mm 4 m/S 746 mmHg 69%
    17:00 +34°C° 5.1 mm 4 m/S 746 mmHg 72%
    18:00 +33°C° 5.1 mm 4 m/S 746 mmHg 74%
    19:00 +33°C° 1.1 mm 4 m/S 746 mmHg 75%
    20:00 +33°C° 1.1 mm 4 m/S 747 mmHg 76%
    21:00 +33°C° 1.1 mm 4 m/S 747 mmHg 76%
    22:00 +33°C° 0 mm 4 m/S 747 mmHg 77%
    23:00 +33°C° 0 mm 3 m/S 747 mmHg 78%

    29 Juni, Samstag

    Zeit Temperatur Niederschläge Wind Luftdruck Luftfeuchtigkeit
    00:00 +33°C° 0 mm 3 m/S 747 mmHg 80%
    01:00 +31°C° 0 mm 3 m/S 747 mmHg 80%
    02:00 +31°C° 0 mm 3 m/S 747 mmHg 81%
    03:00 +31°C° 0 mm 3 m/S 746 mmHg 81%
    04:00 +31°C° 0 mm 3 m/S 747 mmHg 81%
    05:00 +31°C° 0 mm 3 m/S 747 mmHg 80%
    06:00 +31°C° 0 mm 2 m/S 747 mmHg 80%
    07:00 +34°C° 0 mm 3 m/S 747 mmHg 71%
    08:00 +36°C° 0 mm 3 m/S 748 mmHg 63%
    09:00 +37°C° 0 mm 4 m/S 748 mmHg 55%
    10:00 +38°C° 0 mm 4 m/S 747 mmHg 52%
    11:00 +40°C° 0 mm 4 m/S 747 mmHg 50%
    12:00 +40°C° 0 mm 4 m/S 747 mmHg 48%
    13:00 +40°C° 0 mm 5 m/S 746 mmHg 49%
    14:00 +40°C° 0 mm 5 m/S 746 mmHg 49%
    15:00 +40°C° 0 mm 6 m/S 745 mmHg 50%
    16:00 +39°C° 0 mm 6 m/S 745 mmHg 54%
    17:00 +38°C° 0 mm 6 m/S 745 mmHg 58%
    18:00 +36°C° 0 mm 6 m/S 746 mmHg 62%
    19:00 +35°C° 0 mm 6 m/S 746 mmHg 67%
    20:00 +34°C° 0 mm 6 m/S 747 mmHg 71%
    21:00 +33°C° 0 mm 6 m/S 747 mmHg 75%
    22:00 +33°C° 0 mm 5 m/S 747 mmHg 77%
    23:00 +32°C° 0 mm 5 m/S 747 mmHg 78%

    30 Juni, Sonntag

    Zeit Temperatur Niederschläge Wind Luftdruck Luftfeuchtigkeit
    00:00 +32°C° 0 mm 5 m/S 747 mmHg 79%
    01:00 +32°C° 0 mm 4 m/S 747 mmHg 79%
    02:00 +31°C° 0 mm 3 m/S 746 mmHg 80%
    03:00 +31°C° 0 mm 3 m/S 746 mmHg 80%
    04:00 +31°C° 0 mm 2 m/S 746 mmHg 81%
    05:00 +31°C° 0 mm 2 m/S 746 mmHg 81%
    06:00 +31°C° 0 mm 1 m/S 746 mmHg 81%
    07:00 +33°C° 0 mm 1 m/S 746 mmHg 75%
    08:00 +35°C° 0 mm 2 m/S 747 mmHg 70%
    09:00 +36°C° 0 mm 2 m/S 747 mmHg 64%
    10:00 +37°C° 0 mm 2 m/S 746 mmHg 59%
    11:00 +38°C° 0 mm 2 m/S 746 mmHg 53%
    12:00 +39°C° 0 mm 2 m/S 746 mmHg 48%
    13:00 +39°C° 0.3 mm 3 m/S 745 mmHg 50%
    14:00 +40°C° 0.3 mm 4 m/S 744 mmHg 51%
    15:00 +40°C° 0.3 mm 4 m/S 744 mmHg 53%
    16:00 +39°C° 0.5 mm 5 m/S 744 mmHg 58%
    17:00 +36°C° 0.5 mm 5 m/S 744 mmHg 63%
    18:00 +35°C° 0.5 mm 5 m/S 744 mmHg 68%
    19:00 +35°C° 0 mm 5 m/S 744 mmHg 71%
    20:00 +34°C° 0 mm 5 m/S 745 mmHg 74%
    21:00 +33°C° 0 mm 5 m/S 746 mmHg 78%
    22:00 +33°C° 0.5 mm 5 m/S 746 mmHg 78%
    23:00 +33°C° 0.5 mm 4 m/S 746 mmHg 78%

    1 Juli, Montag

    Zeit Temperatur Niederschläge Wind Luftdruck Luftfeuchtigkeit
    00:00 +33°C° 0.5 mm 4 m/S 746 mmHg 79%
    01:00 +32°C° 0.3 mm 4 m/S 746 mmHg 79%
    02:00 +31°C° 0.3 mm 3 m/S 746 mmHg 80%
    03:00 +31°C° 0.3 mm 2 m/S 745 mmHg 80%
    04:00 +31°C° 0 mm 2 m/S 745 mmHg 80%
    05:00 +31°C° 0 mm 2 m/S 745 mmHg 81%
    06:00 +31°C° 0 mm 2 m/S 745 mmHg 81%
    07:00 +34°C° 0.1 mm 3 m/S 746 mmHg 74%
    08:00 +35°C° 0.1 mm 3 m/S 746 mmHg 67%
    09:00 +36°C° 0.1 mm 4 m/S 747 mmHg 59%
    10:00 +36°C° 0.4 mm 5 m/S 746 mmHg 59%
    11:00 +38°C° 0.4 mm 6 m/S 746 mmHg 58%
    12:00 +38°C° 0.4 mm 6 m/S 746 mmHg 58%
    13:00 +36°C° 0.1 mm 6 m/S 745 mmHg 58%
    14:00 +36°C° 0.1 mm 6 m/S 744 mmHg 59%
    15:00 +36°C° 0.1 mm 5 m/S 744 mmHg 60%
    16:00 +35°C° 0.5 mm 5 m/S 744 mmHg 64%
    17:00 +34°C° 0.5 mm 5 m/S 744 mmHg 67%
    18:00 +34°C° 0.5 mm 5 m/S 744 mmHg 70%
    19:00 +33°C° 0.3 mm 4 m/S 744 mmHg 73%
    20:00 +33°C° 0.3 mm 3 m/S 745 mmHg 76%
    21:00 +31°C° 0.3 mm 2 m/S 745 mmHg 79%
    22:00 +31°C° 0.3 mm 3 m/S 745 mmHg 78%
    23:00 +32°C° 0.3 mm 4 m/S 745 mmHg 78%
    Mehr zeigen